Regional Weather Roundup
Issued by NWS

Home | Current Version | Previous Version | Graphics & Text | Print | Product List | Glossary Off
Versions: 1 2 3 4 5 6 7 8 9 10 11 12 13 14 15 16 17 18 19 20 21 22 23 24 25 26 27 28 29 30 31 32 33 34 35 36 37 38 39 40 41 42 43 44 45 46 47 48 49 50

000
ASUS43 KLMK 262010
RWRKY
KENTUCKY REGIONAL WEATHER ROUNDUP
NATIONAL WEATHER SERVICE LOUISVILLE KY
400 PM EDT WED APR 26 2017

NOTE "FAIR" INDICATES FEW OR NO CLOUDS BELOW 12,000 FEET
WITH NO SIGNIFICANT WEATHER AND/OR OBSTRUCTIONS TO VISIBILITY.

KYZ001>023-026-027-061>063-070>075-262100-
WESTERN AND SOUTH CENTRAL KENTUCKY

CITY           SKY/WX    TMP DP  RH WIND       PRES   REMARKS
PADUCAH        CLOUDY    79  62  56 S9G22     29.55F
HENDERSON      CLOUDY    82  62  50 S21G26    29.56F
OWENSBORO      PTSUNNY   81  62  52 S18G26    29.58F
HOPKINSVILLE   SUNNY     82  57  41 S17G28    29.61F
BOWLING GREEN  SUNNY     82  58  43 S18G24    29.64F
GLASGOW        SUNNY     82  52  35 S14G21    29.66F
$$

KYZ024-025-028>034-038-045-046-053-262100-
NORTH CENTRAL KENTUCKY

CITY           SKY/WX    TMP DP  RH WIND       PRES   REMARKS
LOUISVILLE/SDF PTSUNNY   85  57  38 S21G28    29.60F
LOUISVILLE/LOU SUNNY     83  59  44 S16G24    29.60F
FORT KNOX      SUNNY     82  59  44 S20G25    29.60F
$$

KYZ035>037-039>044-047>052-055>060-089>105-262100-
NORTHEAST KENTUCKY

CITY           SKY/WX    TMP DP  RH WIND       PRES   REMARKS
LEXINGTON      SUNNY     82  55  39 S16       29.67F
COVINGTON      MOSUNNY   80  62  54 S21G26    29.61F
FRANKFORT      SUNNY     83  55  38 SE16G24   29.63F
$$

KYZ054-064>069-076>088-106>120-262100-
SOUTHEAST KENTUCKY

CITY           SKY/WX    TMP DP  RH WIND       PRES   REMARKS
JACKSON        SUNNY     82  55  39 MISG      29.71F
LONDON         SUNNY     81  51  35 S10       29.71F
SOMERSET       SUNNY     81  52  36 S6        29.70F
MIDDLESBORO    SUNNY     80  55  41 SE7       29.73F
MONTICELLO     CLEAR     84  57  39 S10G20    29.70F
$$





USA.gov is the U.S. government's official web portal to all federal, state and local government web resources and services.